ORBVIEW 2 (SEASTAR)

Last updated on Sun Sep 20 2026 00:02:08 GMT+0000 (Coordinated Universal Time)

1 24883U 97037A 26262.18223673 .00000152 00000+0 68921-4 0 9998 2 24883 98.8783 71.8643 0001895 182.3006 177.8170 14.35592293536235
UTC large
Height (km)
Speed (km/s)
/
Latitude / Longitude
Inclination (degrees)
Orbital Period (minutes)
Azimuth
Elevation
Range (km)
Doppler Factor

Next 0 passes for location: London (51.5072 / 0.1276)

No passes found over London.
ORBVIEW 2 (SEASTAR)